| time (UTC) | temp C | wind direction | speed KPH | gust KPH | rain 1hr cm | rain 24hr cm | rain mn cm | humidity % | barometer mb |
| 20260506030023 | 18 | 231 | 0.0 | 8.0 | 0.00 | 0.20 | 0.20 | 62 | 1009.2 |
| 20260506025531 | 18 | 201 | 0.0 | 0.0 | 0.00 | 0.20 | 0.20 | 61 | 1009.1 |
| 20260506025021 | 18 | 201 | 0.0 | 0.0 | 0.00 | 0.20 | 0.20 | 61 | 1009.2 |
| 20260506024515 | 18 | 201 | 0.0 | 0.0 | 0.00 | 0.20 | 0.20 | 61 | 1009.3 |
| 20260506024026 | 18 | 201 | 0.0 | 4.8 | 0.00 | 0.20 | 0.20 | 60 | 1009.3 |
| 20260506023517 | 18 | 201 | 0.0 | 8.0 | 0.00 | 0.20 | 0.20 | 59 | 1009.2 |
| 20260506023026 | 19 | 199 | 0.0 | 4.8 | 0.00 | 0.20 | 0.20 | 59 | 1009.2 |
| 20260506022514 | 19 | 198 | 0.0 | 6.4 | 0.00 | 0.20 | 0.20 | 60 | 1009.2 |
| 20260506022028 | 20 | 200 | 1.6 | 6.4 | 0.00 | 0.20 | 0.20 | 59 | 1009.2 |
| 20260506021518 | 20 | 191 | 1.6 | 4.8 | 0.00 | 0.20 | 0.20 | 56 | 1009.1 |
| 20260506021031 | 21 | 197 | 0.0 | 9.7 | 0.00 | 0.20 | 0.20 | 52 | 1009.0 |
| 20260506020520 | 21 | 196 | 3.2 | 9.7 | 0.00 | 0.20 | 0.20 | 51 | 1009.1 |
| 20260506020032 | 21 | 223 | 0.0 | 0.0 | 0.00 | 0.20 | 0.20 | 51 | 1009.1 |
| 20260506015526 | 21 | 225 | 0.0 | 0.0 | 0.00 | 0.20 | 0.20 | 51 | 1009.1 |
| 20260506015015 | 22 | 225 | 0.0 | 1.6 | 0.00 | 0.20 | 0.20 | 50 | 1009.1 |
| 20260506014527 | 22 | 225 | 0.0 | 3.2 | 0.00 | 0.20 | 0.20 | 48 | 1009.0 |
| 20260506014020 | 22 | 224 | 0.0 | 1.6 | 0.00 | 0.20 | 0.20 | 48 | 1009.0 |
| 20260506013531 | 22 | 224 | 0.0 | 8.0 | 0.00 | 0.20 | 0.20 | 48 | 1008.9 |
| 20260506013031 | 23 | 226 | 1.6 | 8.0 | 0.00 | 0.20 | 0.20 | 46 | 1008.9 |
| 20260506012526 | 23 | 191 | 0.0 | 4.8 | 0.00 | 0.20 | 0.20 | 46 | 1008.9 |
| 20260506012022 | 23 | 183 | 0.0 | 3.2 | 0.00 | 0.20 | 0.20 | 46 | 1008.7 |
| 20260506011520 | 23 | 182 | 0.0 | 8.0 | 0.00 | 0.20 | 0.20 | 46 | 1008.7 |
| 20260506011028 | 23 | 179 | 1.6 | 8.0 | 0.00 | 0.20 | 0.20 | 45 | 1008.6 |
| 20260506010519 | 23 | 212 | 0.0 | 8.0 | 0.00 | 0.20 | 0.20 | 46 | 1008.5 |
| 20260506010013 | 23 | 211 | 1.6 | 8.0 | 0.00 | 0.20 | 0.20 | 45 | 1008.4 |
| 20260506005527 | 23 | 196 | 1.6 | 8.0 | 0.00 | 0.20 | 0.20 | 44 | 1008.4 |
| 20260506005021 | 23 | 202 | 0.0 | 16.1 | 0.00 | 0.20 | 0.20 | 45 | 1008.3 |
| 20260506004518 | 23 | 205 | 3.2 | 16.1 | 0.00 | 0.20 | 0.20 | 44 | 1008.3 |
| 20260506004015 | 23 | 207 | 3.2 | 14.5 | 0.00 | 0.20 | 0.20 | 44 | 1008.2 |
| 20260506003529 | 23 | 241 | 3.2 | 11.3 | 0.00 | 0.20 | 0.20 | 44 | 1008.2 |
| 20260506003025 | 23 | 228 | 0.0 | 6.4 | 0.00 | 0.20 | 0.20 | 44 | 1008.2 |
| 20260506002519 | 23 | 222 | 0.0 | 8.0 | 0.00 | 0.20 | 0.20 | 44 | 1008.2 |
| 20260506002028 | 24 | 223 | 1.6 | 12.9 | 0.00 | 0.20 | 0.20 | 44 | 1008.2 |
| 20260506001520 | 24 | 250 | 3.2 | 14.5 | 0.00 | 0.20 | 0.20 | 43 | 1008.1 |
| 20260506001025 | 24 | 201 | 1.6 | 14.5 | 0.00 | 0.20 | 0.20 | 42 | 1008.0 |
| 20260506000514 | 25 | 207 | 1.6 | 16.1 | 0.00 | 0.20 | 0.20 | 42 | 1008.0 |
| 20260506000025 | 25 | 235 | 6.4 | 16.1 | 0.00 | 0.20 | 0.20 | 41 | 1007.9 |
| 20260505235517 | 25 | 139 | 0.0 | 12.9 | 0.00 | 0.20 | 0.20 | 41 | 1007.9 |
| 20260505235029 | 25 | 203 | 3.2 | 12.9 | 0.00 | 0.20 | 0.20 | 42 | 1007.8 |
| 20260505234519 | 25 | 184 | 1.6 | 12.9 | 0.00 | 0.20 | 0.20 | 42 | 1007.8 |
| 20260505234030 | 25 | 227 | 4.8 | 14.5 | 0.00 | 0.20 | 0.20 | 41 | 1007.8 |
| 20260505233520 | 25 | 225 | 1.6 | 19.3 | 0.00 | 0.20 | 0.20 | 42 | 1007.7 |
| 20260505233022 | 25 | 236 | 9.7 | 19.3 | 0.00 | 0.20 | 0.20 | 41 | 1007.7 |
| 20260505232533 | 25 | 195 | 3.2 | 17.7 | 0.00 | 0.20 | 0.20 | 42 | 1007.6 |
| 20260505232023 | 25 | 230 | 4.8 | 22.5 | 0.00 | 0.20 | 0.20 | 41 | 1007.6 |
| 20260505231530 | 25 | 170 | 4.8 | 22.5 | 0.00 | 0.20 | 0.20 | 41 | 1007.5 |
| 20260505231018 | 25 | 219 | 3.2 | 16.1 | 0.00 | 0.20 | 0.20 | 42 | 1007.6 |
| 20260505230530 | 25 | 219 | 1.6 | 29.0 | 0.00 | 0.20 | 0.20 | 42 | 1007.7 |
| 20260505230026 | 25 | 178 | 6.4 | 29.0 | 0.00 | 0.20 | 0.20 | 41 | 1007.5 |
| 20260505225518 | 25 | 225 | 1.6 | 14.5 | 0.00 | 0.20 | 0.20 | 42 | 1007.5 |
| 20260505225017 | 25 | 217 | 3.2 | 16.1 | 0.00 | 0.20 | 0.20 | 41 | 1007.5 |
| 20260505224531 | 26 | 246 | 4.8 | 16.1 | 0.00 | 0.20 | 0.20 | 41 | 1007.4 |
| 20260505224023 | 26 | 220 | 0.0 | 9.7 | 0.00 | 0.20 | 0.20 | 39 | 1007.3 |
| 20260505223518 | 26 | 215 | 3.2 | 16.1 | 0.00 | 0.20 | 0.20 | 38 | 1007.2 |
| 20260505223035 | 26 | 218 | 9.7 | 25.7 | 0.00 | 0.20 | 0.20 | 38 | 1007.2 |
| 20260505222523 | 26 | 226 | 11.3 | 25.7 | 0.00 | 0.20 | 0.20 | 38 | 1007.4 |
| 20260505222019 | 26 | 233 | 11.3 | 27.4 | 0.00 | 0.20 | 0.20 | 37 | 1007.3 |
| 20260505221513 | 26 | 213 | 4.8 | 30.6 | 0.00 | 0.20 | 0.20 | 37 | 1007.3 |
| 20260505221028 | 26 | 214 | 9.7 | 22.5 | 0.00 | 0.20 | 0.20 | 37 | 1007.1 |
| 20260505220520 | 26 | 240 | 9.7 | 25.7 | 0.00 | 0.20 | 0.20 | 38 | 1007.1 |
| 20260505220029 | 26 | 215 | 14.5 | 27.4 | 0.00 | 0.20 | 0.20 | 37 | 1007.0 |
| 20260505215521 | 26 | 255 | 9.7 | 19.3 | 0.00 | 0.20 | 0.20 | 38 | 1006.9 |
| 20260505215030 | 26 | 226 | 9.7 | 20.9 | 0.00 | 0.20 | 0.20 | 39 | 1007.0 |
| 20260505214522 | 26 | 231 | 1.6 | 12.9 | 0.00 | 0.20 | 0.20 | 41 | 1007.0 |
| 20260505214032 | 26 | 211 | 1.6 | 17.7 | 0.00 | 0.20 | 0.20 | 40 | 1007.0 |
| 20260505213028 | 26 | 220 | 3.2 | 20.9 | 0.00 | 0.20 | 0.20 | 42 | 1007.1 |
| 20260505212521 | 26 | 201 | 1.6 | 20.9 | 0.00 | 0.20 | 0.20 | 41 | 1007.2 |
| 20260505212029 | 26 | 226 | 1.6 | 35.4 | 0.00 | 0.20 | 0.20 | 42 | 1007.1 |
| 20260505211520 | 26 | 76 | 6.4 | 35.4 | 0.00 | 0.20 | 0.20 | 41 | 1007.0 |
| 20260505211032 | 26 | 188 | 16.1 | 35.4 | 0.00 | 0.20 | 0.20 | 39 | 1007.1 |
| 20260505210516 | 27 | 230 | 4.8 | 29.0 | 0.00 | 0.20 | 0.20 | 40 | 1007.0 |
| 20260505210027 | 27 | 230 | 6.4 | 29.0 | 0.00 | 0.20 | 0.20 | 39 | 1007.0 |
| 20260505205516 | 27 | 220 | 6.4 | 27.4 | 0.00 | 0.20 | 0.20 | 39 | 1007.0 |
| 20260505205027 | 27 | 223 | 11.3 | 24.1 | 0.00 | 0.20 | 0.20 | 38 | 1007.0 |
| 20260505204521 | 28 | 159 | 8.0 | 22.5 | 0.00 | 0.20 | 0.20 | 39 | 1006.9 |
| 20260505204030 | 28 | 210 | 8.0 | 32.2 | 0.00 | 0.20 | 0.20 | 39 | 1007.1 |
| 20260505203514 | 28 | 198 | 14.5 | 32.2 | 0.00 | 0.20 | 0.20 | 39 | 1007.0 |
| 20260505203027 | 28 | 237 | 8.0 | 24.1 | 0.00 | 0.20 | 0.20 | 40 | 1007.1 |
| 20260505202541 | 28 | 173 | 11.3 | 24.1 | 0.00 | 0.20 | 0.20 | 39 | 1007.0 |
| 20260505202021 | 28 | 227 | 3.2 | 30.6 | 0.00 | 0.20 | 0.20 | 40 | 1007.0 |
| 20260505201515 | 28 | 204 | 14.5 | 30.6 | 0.00 | 0.20 | 0.20 | 39 | 1006.9 |
| 20260505201024 | 28 | 149 | 3.2 | 30.6 | 0.00 | 0.20 | 0.20 | 39 | 1006.9 |
| 20260505200526 | 27 | 193 | 11.3 | 30.6 | 0.00 | 0.20 | 0.20 | 38 | 1007.0 |
| 20260505200035 | 27 | 220 | 3.2 | 32.2 | 0.00 | 0.20 | 0.20 | 39 | 1006.9 |
| 20260505195520 | 27 | 248 | 14.5 | 38.6 | 0.00 | 0.20 | 0.20 | 36 | 1007.0 |
| 20260505195027 | 27 | 226 | 14.5 | 41.8 | 0.00 | 0.20 | 0.20 | 36 | 1007.1 |
| 20260505194514 | 27 | 229 | 14.5 | 48.3 | 0.00 | 0.20 | 0.20 | 36 | 1007.3 |
| 20260505194021 | 27 | 243 | 12.9 | 37.0 | 0.00 | 0.20 | 0.20 | 37 | 1007.4 |
| 20260505193529 | 27 | 232 | 11.3 | 27.4 | 0.00 | 0.20 | 0.20 | 37 | 1007.6 |
| 20260505193018 | 27 | 217 | 12.9 | 38.6 | 0.00 | 0.20 | 0.20 | 38 | 1007.5 |
| 20260505192525 | 27 | 229 | 16.1 | 38.6 | 0.00 | 0.20 | 0.20 | 35 | 1007.6 |
| 20260505192032 | 27 | 247 | 11.3 | 33.8 | 0.00 | 0.20 | 0.20 | 37 | 1007.7 |
| 20260505191544 | 27 | 208 | 14.5 | 37.0 | 0.00 | 0.20 | 0.20 | 36 | 1007.6 |
| 20260505191015 | 27 | 248 | 20.9 | 37.0 | 0.00 | 0.20 | 0.20 | 34 | 1007.6 |
| 20260505190520 | 27 | 231 | 8.0 | 37.0 | 0.00 | 0.20 | 0.20 | 38 | 1007.5 |
| 20260505190015 | 27 | 217 | 16.1 | 30.6 | 0.00 | 0.20 | 0.20 | 36 | 1007.8 |
| 20260505180521 | 27 | 228 | 12.9 | 40.2 | 0.00 | 0.20 | 0.20 | 40 | 1008.3 |
| 20260505180035 | 27 | 211 | 11.3 | 22.5 | 0.00 | 0.20 | 0.20 | 41 | 1008.4 |
| 20260505175521 | 27 | 266 | 11.3 | 29.0 | 0.00 | 0.20 | 0.20 | 39 | 1008.4 |
| 20260505175028 | 27 | 230 | 14.5 | 24.1 | 0.00 | 0.20 | 0.20 | 40 | 1008.5 |
| 20260505174522 | 27 | 224 | 9.7 | 30.6 | 0.00 | 0.20 | 0.20 | 41 | 1008.6 |
| 20260505174015 | 26 | 242 | 9.7 | 38.6 | 0.00 | 0.20 | 0.20 | 40 | 1008.8 |
| 20260505173524 | 26 | 188 | 14.5 | 48.3 | 0.00 | 0.20 | 0.20 | 40 | 1008.8 |
| 20260505173014 | 26 | 153 | 19.3 | 48.3 | 0.00 | 0.20 | 0.20 | 39 | 1008.7 |
| 20260505172522 | 26 | 257 | 9.7 | 24.1 | 0.00 | 0.20 | 0.20 | 46 | 1008.7 |
| 20260505172029 | 25 | 205 | 6.4 | 20.9 | 0.00 | 0.20 | 0.20 | 47 | 1008.8 |
| 20260505171521 | 25 | 260 | 6.4 | 16.1 | 0.00 | 0.20 | 0.20 | 47 | 1008.9 |
| 20260505171023 | 25 | 234 | 8.0 | 24.1 | 0.00 | 0.20 | 0.20 | 47 | 1008.8 |
| 20260505170534 | 25 | 227 | 11.3 | 24.1 | 0.00 | 0.20 | 0.20 | 47 | 1008.9 |
| 20260505170023 | 25 | 240 | 8.0 | 20.9 | 0.00 | 0.20 | 0.20 | 47 | 1008.9 |
| 20260505165528 | 26 | 279 | 4.8 | 22.5 | 0.00 | 0.20 | 0.20 | 48 | 1008.9 |
| 20260505165017 | 26 | 259 | 8.0 | 22.5 | 0.00 | 0.20 | 0.20 | 49 | 1008.9 |
| 20260505164529 | 26 | 261 | 11.3 | 22.5 | 0.00 | 0.20 | 0.20 | 47 | 1009.0 |
| 20260505164019 | 25 | 250 | 11.3 | 19.3 | 0.00 | 0.20 | 0.20 | 50 | 1009.2 |
| 20260505163514 | 25 | 245 | 8.0 | 27.4 | 0.00 | 0.20 | 0.20 | 50 | 1009.4 |
| 20260505163020 | 25 | 265 | 11.3 | 33.8 | 0.00 | 0.20 | 0.20 | 49 | 1009.6 |
| 20260505162522 | 25 | 246 | 12.9 | 33.8 | 0.00 | 0.20 | 0.20 | 49 | 1009.6 |
| 20260505162026 | 25 | 214 | 11.3 | 25.7 | 0.00 | 0.20 | 0.20 | 50 | 1009.7 |
| 20260505161516 | 25 | 232 | 6.4 | 25.7 | 0.00 | 0.20 | 0.20 | 48 | 1009.7 |
| 20260505161024 | 25 | 241 | 8.0 | 22.5 | 0.00 | 0.20 | 0.20 | 52 | 1009.8 |
| 20260505160533 | 25 | 214 | 11.3 | 24.1 | 0.00 | 0.20 | 0.20 | 49 | 1009.8 |
| 20260505153028 | 24 | 263 | 6.4 | 20.9 | 0.00 | 0.20 | 0.20 | 53 | 1010.0 |
| 20260505152517 | 24 | 233 | 8.0 | 20.9 | 0.00 | 0.20 | 0.20 | 53 | 1010.1 |
| 20260505152024 | 23 | 241 | 3.2 | 14.5 | 0.00 | 0.20 | 0.20 | 54 | 1010.1 |
| 20260505151528 | 23 | 202 | 3.2 | 16.1 | 0.00 | 0.20 | 0.20 | 56 | 1010.1 |
| 20260505151015 | 23 | 239 | 6.4 | 16.1 | 0.00 | 0.20 | 0.20 | 57 | 1010.3 |
| 20260505150525 | 22 | 216 | 3.2 | 11.3 | 0.00 | 0.20 | 0.20 | 60 | 1010.3 |
| 20260505140528 | 20 | 340 | 0.0 | 0.0 | 0.00 | 0.20 | 0.20 | 75 | 1010.8 |
| 20260505125013 | 13 | 344 | 0.0 | 0.0 | 0.00 | 0.20 | 0.20 | 96 | 1011.3 |
| 20260505124521 | 13 | 345 | 0.0 | 3.2 | 0.00 | 0.20 | 0.20 | 97 | 1011.2 |
| 20260505124030 | 12 | 345 | 0.0 | 3.2 | 0.00 | 0.20 | 0.20 | 97 | 1011.1 |
| 20260505123525 | 12 | 343 | 0.0 | 0.0 | 0.00 | 0.20 | 0.20 | 96 | 1011.0 |
| 20260505123017 | 12 | 343 | 0.0 | 0.0 | 0.00 | 0.20 | 0.20 | 97 | 1011.0 |
| 20260505122525 | 12 | 343 | 0.0 | 0.0 | 0.00 | 0.20 | 0.20 | 96 | 1011.0 |
| 20260505122032 | 11 | 343 | 0.0 | 0.0 | 0.00 | 0.20 | 0.20 | 96 | 1011.0 |
| 20260505121518 | 11 | 343 | 0.0 | 0.0 | 0.00 | 0.20 | 0.20 | 96 | 1011.1 |
| 20260505121021 | 11 | 343 | 0.0 | 0.0 | 0.00 | 0.20 | 0.20 | 96 | 1011.1 |
| 20260505120529 | 11 | 343 | 0.0 | 0.0 | 0.00 | 0.20 | 0.20 | 96 | 1011.2 |
| 20260505120018 | 11 | 343 | 0.0 | 0.0 | 0.00 | 0.20 | 0.20 | 96 | 1011.1 |
| 20260505115528 | 11 | 343 | 0.0 | 0.0 | 0.00 | 0.20 | 0.20 | 96 | 1011.1 |
| 20260505115015 | 10 | 343 | 0.0 | 0.0 | 0.00 | 0.20 | 0.20 | 96 | 1011.2 |
| 20260505114524 | 10 | 343 | 0.0 | 0.0 | 0.00 | 0.20 | 0.20 | 96 | 1011.3 |
| 20260505114013 | 10 | 343 | 0.0 | 0.0 | 0.00 | 0.20 | 0.20 | 96 | 1011.1 |
| 20260505113520 | 10 | 343 | 0.0 | 0.0 | 0.00 | 0.20 | 0.20 | 96 | 1011.0 |
| 20260505113029 | 10 | 343 | 0.0 | 0.0 | 0.00 | 0.20 | 0.20 | 96 | 1011.1 |
| 20260505112535 | 10 | 343 | 0.0 | 0.0 | 0.00 | 0.20 | 0.20 | 96 | 1011.0 |
| 20260505112021 | 10 | 343 | 0.0 | 0.0 | 0.00 | 0.20 | 0.20 | 95 | 1011.0 |
| 20260505111531 | 10 | 343 | 0.0 | 0.0 | 0.00 | 0.20 | 0.20 | 95 | 1010.9 |
| 20260505111038 | 10 | 343 | 0.0 | 0.0 | 0.00 | 0.20 | 0.20 | 95 | 1010.7 |
| 20260505110520 | 10 | 343 | 0.0 | 0.0 | 0.00 | 0.20 | 0.20 | 95 | 1010.7 |
| 20260505102036 | 9 | 343 | 0.0 | 0.0 | 0.00 | 0.20 | 0.20 | 94 | 1010.6 |
| 20260505101519 | 9 | 343 | 0.0 | 0.0 | 0.00 | 0.20 | 0.20 | 94 | 1010.7 |
| 20260505101032 | 9 | 343 | 0.0 | 0.0 | 0.00 | 0.20 | 0.20 | 94 | 1010.6 |
| 20260505100538 | 9 | 343 | 0.0 | 0.0 | 0.00 | 0.20 | 0.20 | 94 | 1010.5 |
| 20260505100029 | 10 | 343 | 0.0 | 0.0 | 0.00 | 0.20 | 0.20 | 94 | 1010.4 |
| 20260505095540 | 10 | 343 | 0.0 | 0.0 | 0.00 | 0.20 | 0.20 | 94 | 1010.4 |
| 20260505095024 | 10 | 343 | 0.0 | 0.0 | 0.00 | 0.20 | 0.20 | 94 | 1010.4 |
| 20260505094532 | 10 | 343 | 0.0 | 0.0 | 0.00 | 0.20 | 0.20 | 94 | 1010.2 |
| 20260505094023 | 10 | 343 | 0.0 | 0.0 | 0.05 | 0.20 | 0.20 | 93 | 1010.3 |
| 20260505093532 | 10 | 343 | 0.0 | 0.0 | 0.10 | 0.20 | 0.20 | 94 | 1010.2 |
| 20260505093033 | 10 | 343 | 0.0 | 0.0 | 0.13 | 0.20 | 0.20 | 93 | 1010.2 |
| 20260505092522 | 10 | 343 | 0.0 | 0.0 | 0.20 | 0.20 | 0.20 | 93 | 1010.1 |
| 20260505092030 | 10 | 343 | 0.0 | 0.0 | 0.20 | 0.20 | 0.20 | 93 | 1010.1 |
| 20260505091537 | 10 | 343 | 0.0 | 0.0 | 0.20 | 0.20 | 0.20 | 93 | 1010.1 |
| 20260505091025 | 10 | 343 | 0.0 | 0.0 | 0.20 | 0.20 | 0.20 | 93 | 1010.1 |
| 20260505090538 | 10 | 343 | 0.0 | 0.0 | 0.20 | 0.20 | 0.20 | 93 | 1010.1 |
| 20260505090030 | 10 | 343 | 0.0 | 0.0 | 0.20 | 0.20 | 0.20 | 93 | 1009.9 |
| 20260505085535 | 10 | 343 | 0.0 | 4.8 | 0.20 | 0.20 | 0.20 | 92 | 1009.9 |
| 20260505085024 | 10 | 343 | 1.6 | 8.0 | 0.20 | 0.20 | 0.20 | 92 | 1010.0 |
| 20260505084534 | 10 | 336 | 3.2 | 8.0 | 0.20 | 0.20 | 0.20 | 91 | 1010.1 |
| 20260505084022 | 10 | 192 | 0.0 | 3.2 | 0.15 | 0.15 | 0.15 | 90 | 1010.4 |
| 20260505083531 | 10 | 192 | 0.0 | 3.2 | 0.10 | 0.10 | 0.10 | 90 | 1010.9 |
| 20260505083019 | 10 | 191 | 0.0 | 0.0 | 0.08 | 0.08 | 0.08 | 89 | 1010.8 |
| 20260505082526 | 10 | 191 | 0.0 | 0.0 | 0.00 | 0.00 | 0.00 | 88 | 1011.0 |
| 20260505082034 | 10 | 191 | 0.0 | 0.0 | 0.00 | 0.00 | 0.00 | 88 | 1010.9 |
| 20260505081520 | 10 | 191 | 0.0 | 0.0 | 0.00 | 0.00 | 0.00 | 87 | 1010.8 |
| 20260505081027 | 10 | 191 | 0.0 | 0.0 | 0.00 | 0.00 | 0.00 | 86 | 1010.7 |
| 20260505080531 | 10 | 191 | 0.0 | 0.0 | 0.00 | 0.00 | 0.00 | 86 | 1010.4 |
| 20260505080022 | 10 | 191 | 0.0 | 0.0 | 0.00 | 0.00 | 0.00 | 85 | 1010.3 |
| 20260505075518 | 10 | 191 | 0.0 | 0.0 | 0.00 | 0.00 | 0.00 | 84 | 1010.2 |
| 20260505075027 | 10 | 191 | 0.0 | 0.0 | 0.00 | 0.00 | 0.00 | 84 | 1010.1 |
| 20260505074526 | 10 | 191 | 0.0 | 0.0 | 0.00 | 0.00 | 0.00 | 84 | 1010.0 |
| 20260505074038 | 10 | 191 | 0.0 | 0.0 | 0.00 | 0.00 | 0.00 | 84 | 1009.9 |
| 20260505073529 | 10 | 191 | 0.0 | 0.0 | 0.00 | 0.00 | 0.00 | 85 | 1009.9 |
| 20260505073036 | 10 | 191 | 0.0 | 0.0 | 0.00 | 0.00 | 0.00 | 85 | 1010.0 |
| 20260505072520 | 10 | 191 | 0.0 | 0.0 | 0.00 | 0.00 | 0.00 | 85 | 1009.9 |
| 20260505072027 | 10 | 191 | 0.0 | 0.0 | 0.00 | 0.00 | 0.00 | 85 | 1009.9 |
| 20260505071532 | 10 | 191 | 0.0 | 0.0 | 0.00 | 0.00 | 0.00 | 85 | 1009.9 |
| 20260505071039 | 10 | 191 | 0.0 | 0.0 | 0.00 | 0.00 | 0.00 | 85 | 1009.9 |
| 20260505070529 | 10 | 191 | 0.0 | 0.0 | 0.00 | 0.00 | 0.00 | 84 | 1010.1 |
| 20260505070023 | 10 | 191 | 0.0 | 0.0 | 0.00 | 0.00 | 0.00 | 84 | 1010.1 |
| 20260505065523 | 10 | 191 | 0.0 | 0.0 | 0.00 | 0.00 | 0.00 | 84 | 1010.0 |
| 20260505065035 | 10 | 191 | 0.0 | 0.0 | 0.00 | 0.00 | 0.00 | 83 | 1010.0 |
| 20260505064524 | 10 | 191 | 0.0 | 0.0 | 0.00 | 0.00 | 0.00 | 83 | 1010.0 |
| 20260505064034 | 10 | 191 | 0.0 | 0.0 | 0.00 | 0.00 | 0.00 | 83 | 1010.0 |
| 20260505063525 | 10 | 191 | 0.0 | 0.0 | 0.00 | 0.00 | 0.00 | 83 | 1009.9 |
| 20260505063030 | 10 | 191 | 0.0 | 0.0 | 0.00 | 0.00 | 0.00 | 83 | 1010.0 |
| 20260505062520 | 10 | 191 | 0.0 | 0.0 | 0.00 | 0.00 | 0.00 | 83 | 1010.0 |
| 20260505062037 | 10 | 191 | 0.0 | 0.0 | 0.00 | 0.00 | 0.00 | 83 | 1010.0 |
| 20260505061531 | 10 | 191 | 0.0 | 0.0 | 0.00 | 0.00 | 0.00 | 83 | 1010.1 |
| 20260505061025 | 10 | 191 | 0.0 | 0.0 | 0.00 | 0.00 | 0.00 | 83 | 1010.2 |
| 20260505060519 | 10 | 191 | 0.0 | 0.0 | 0.00 | 0.00 | 0.00 | 83 | 1010.2 |
| 20260505060035 | 10 | 191 | 0.0 | 0.0 | 0.00 | 0.00 | 0.00 | 82 | 1010.2 |
| 20260505055530 | 10 | 191 | 0.0 | 0.0 | 0.00 | 0.00 | 0.00 | 82 | 1010.2 |
| 20260505055027 | 10 | 191 | 0.0 | 0.0 | 0.00 | 0.00 | 0.00 | 82 | 1010.3 |
| 20260505054522 | 10 | 191 | 0.0 | 0.0 | 0.00 | 0.00 | 0.00 | 82 | 1010.3 |
| 20260505054036 | 10 | 191 | 0.0 | 0.0 | 0.00 | 0.00 | 0.00 | 82 | 1010.3 |
| 20260505053531 | 10 | 191 | 0.0 | 0.0 | 0.00 | 0.00 | 0.00 | 82 | 1010.2 |
| 20260505053027 | 11 | 191 | 0.0 | 0.0 | 0.00 | 0.00 | 0.00 | 81 | 1010.2 |
| 20260505052525 | 10 | 191 | 0.0 | 0.0 | 0.00 | 0.00 | 0.00 | 81 | 1010.1 |
| 20260505052020 | 11 | 191 | 0.0 | 0.0 | 0.00 | 0.00 | 0.00 | 81 | 1010.1 |
| 20260505051536 | 11 | 191 | 0.0 | 0.0 | 0.00 | 0.00 | 0.00 | 81 | 1010.0 |
| 20260505051027 | 11 | 191 | 0.0 | 0.0 | 0.00 | 0.00 | 0.00 | 80 | 1010.0 |
| 20260505050528 | 11 | 191 | 0.0 | 0.0 | 0.00 | 0.00 | 0.00 | 80 | 1010.0 |
| 20260505041535 | 11 | 191 | 0.0 | 0.0 | 0.00 | 0.00 | 0.00 | 77 | 1009.8 |
| 20260505041026 | 12 | 191 | 0.0 | 0.0 | 0.00 | 0.00 | 0.00 | 76 | 1009.9 |
| 20260505040521 | 12 | 191 | 0.0 | 0.0 | 0.00 | 0.00 | 0.00 | 75 | 1009.8 |
| 20260505040037 | 12 | 191 | 0.0 | 0.0 | 0.00 | 0.00 | 0.00 | 75 | 1009.8 |
| 20260505035531 | 12 | 191 | 0.0 | 0.0 | 0.00 | 0.00 | 0.00 | 73 | 1009.7 |
| 20260505035030 | 12 | 191 | 0.0 | 0.0 | 0.00 | 0.00 | 0.00 | 72 | 1009.6 |
| 20260505034525 | 12 | 191 | 0.0 | 0.0 | 0.00 | 0.00 | 0.00 | 72 | 1009.6 |
| 20260505034022 | 12 | 191 | 0.0 | 0.0 | 0.00 | 0.00 | 0.00 | 71 | 1009.7 |
| 20260505033535 | 12 | 191 | 0.0 | 0.0 | 0.00 | 0.00 | 0.00 | 70 | 1009.7 |
| 20260505033030 | 13 | 191 | 0.0 | 0.0 | 0.00 | 0.00 | 0.00 | 69 | 1009.7 |
| 20260505032525 | 13 | 191 | 0.0 | 0.0 | 0.00 | 0.00 | 0.00 | 70 | 1009.8 |
| 20260505032020 | 13 | 191 | 0.0 | 0.0 | 0.00 | 0.00 | 0.00 | 70 | 1009.8 |
| 20260505031538 | 13 | 191 | 0.0 | 0.0 | 0.00 | 0.00 | 0.00 | 67 | 1009.8 |
| 20260505031033 | 13 | 191 | 0.0 | 0.0 | 0.00 | 0.00 | 0.00 | 67 | 1009.8 |
| 20260505030528 | 13 | 191 | 0.0 | 0.0 | 0.00 | 0.00 | 0.00 | 67 | 1009.9 |